Wind_Speed
5 5 6 5 5 4 4 4 5 6 6 6 7 7 7 7 7 6 6 6 6 6 6 6 6 6 6 6 6 7 7 8 7 6 6 7 8 7 7 6 7 7 7
5 5 6 5 5 5 5 5 6 6 6 7 6 6 6 6 6 6 5 5 5 6 6 6 6 6 6 6 7 7 7 7 7 7 7 7 8 8 7 7 7 7 7
6 6 6 6 6 6 6 6 6 6 6 6 6 6 6 7 6 5 5 4 5 5 6 7 7 6 6 6 6 6 7 7 7 7 6 7 7 7 7 6 6 6 7
7 7 7 7 7 7 6 6 6 6 7 6 6 7 7 6 6 5 4 4 4 4 5 7 7 6 6 6 6 6 6 6 7 7 7 7 8 8 8 8 7 7 7
8 7 7 7 7 7 6 4 5 7 7 7 6 8 7 6 5 4 3 3 4 4 4 6 7 7 7 6 7 7 6 6 7 6 6 6 7 8 9 9 9 8 8
8 7 7 7 7 7 7 7 7 8 7 6 7 7 6 6 5 4 3 3 4 4 4 5 6 7 7 6 6 7 7 7 7 6 5 5 7 8 8 9 8 9 8
8 8 7 7 7 7 7 8 9 8 7 6 6 6 5 5 4 4 4 3 3 4 4 5 5 6 6 6 6 6 6 6 6 6 6 6 6 7 7 8 8 8 9
8 8 8 7 7 7 7 7 7 7 7 7 6 6 5 4 4 4 4 4 4 4 4 4 4 4 4 4 5 5 5 6 6 7 7 7 7 8 8 7 7 8 9
9 8 8 7 7 7 6 6 5 5 5 5 5 4 4 4 3 3 3 4 4 4 4 3 3 3 3 4 4 4 5 6 6 5 7 7 8 8 8 8 8 9 10
9 8 8 7 7 6 6 5 5 5 5 4 4 3 3 3 3 3 3 2 2 3 3 3 3 3 3 3 3 4 5 6 7 6 6 6 7 8 9 9 9 9 9
9 8 8 7 7 6 5 5 4 4 4 3 3 2 1 1 1 1 2 2 2 2 2 2 3 3 3 3 3 3 4 5 6 6 6 6 7 8 9 9 9 9 10
9 8 7 6 6 5 5 4 4 3 2 2 2 2 1 1 1 1 1 1 2 2 2 2 2 3 3 4 3 3 4 5 5 5 6 7 7 7 8 9 9 9 10
8 8 7 6 5 5 4 4 3 3 2 2 2 1 1 0 0 0 1 1 1 1 1 2 2 3 3 4 4 4 4 4 5 6 6 7 7 8 8 9 9 10 10
7 8 8 7 7 5 4 4 3 3 2 1 1 1 1 1 1 0 0 1 1 2 2 3 3 3 4 4 5 5 5 5 5 6 7 7 7 8 8 9 9 9 11
6 7 7 7 7 6 6 5 4 3 2 2 2 1 1 1 1 1 1 1 1 2 2 3 4 4 4 5 5 5 5 5 6 6 7 8 8 8 9 10 10 10 10
6 6 6 6 6 6 6 6 5 4 3 2 2 1 1 1 2 2 1 1 2 2 4 4 4 5 5 5 5 6 6 6 6 6 6 7 8 9 9 10 10 11 11
6 5 5 5 6 6 6 6 6 5 4 3 2 2 2 2 2 2 2 2 3 3 3 4 4 5 5 6 6 6 7 7 7 7 7 7 8 9 9 10 11 11 11
6 6 5 5 6 6 6 6 6 5 4 4 3 3 3 3 3 3 3 3 2 3 3 4 4 5 6 6 6 7 7 8 9 9 9 9 9 9 9 10 10 10 11
6 6 6 6 6 6 6 6 6 5 4 4 3 4 4 3 3 3 3 3 4 4 4 4 5 5 6 7 7 7 8 9 9 10 10 10 11 11 11 11 11 11 12
6 6 6 6 6 7 7 7 7 6 5 5 4 4 5 5 4 4 4 4 5 5 5 6 6 6 7 7 8 8 9 9 10 10 11 11 11 12 12 13 13 13 13
7 6 7 7 7 7 6 6 6 6 6 6 6 6 6 6 5 5 6 6 6 6 6 6 7 7 7 7 8 9 9 10 10 11 12 12 13 13 14 14 14 15 15
8 7 7 7 7 7 7 7 6 6 7 7 7 7 7 7 6 6 7 7 7 8 8 8 8 8 8 9 9 9 10 11 12 12 12 13 14 15 15 15 15 16 16
8 8 8 8 7 7 7 7 6 7 8 8 8 8 8 8 8 7 8 9 9 10 10 10 9 9 10 10 10 11 12 13 14 14 14 14 15 15 16 16 16 17 18
8 8 8 8 8 8 7 6 7 8 9 8 8 9 9 9 9 9 9 10 10 10 10 10 11 11 12 12 12 13 14 14 15 15 16 16 16 16 17 18 18 18 19
8 9 8 9 8 8 8 8 9 9 10 10 10 10 11 11 11 11 11 11 11 11 11 12 13 13 13 13 14 14 15 15 16 16 17 17 17 18 18 19 19 20 19
9 9 9 9 9 8 9 9 10 10 11 11 12 11 12 12 12 13 13 13 12 13 13 14 14 15 15 15 16 16 16 17 17 17 18 18 18 18 19 19 20 21 21
Wind_Direction
72 74 69 70 72 87 102 116 121 120 121 128 136 136 137 141 148 151 153 160 164 170 182 191 192 195 195 189 187 195 199 202 209 211 210 208 212 217 216 220 225 227 225
69 76 76 74 77 87 100 112 126 124 122 123 134 141 142 145 148 148 157 169 176 179 189 193 195 199 200 195 191 194 194 201 204 206 209 214 218 216 214 224 230 231 227
71 75 76 78 83 89 100 109 121 126 128 128 130 139 144 143 144 152 162 173 179 188 197 200 204 210 202 199 199 197 197 200 205 207 210 215 218 215 214 222 228 228 225
72 72 74 77 84 90 100 108 124 127 126 126 128 133 136 137 141 149 157 165 177 184 193 198 204 206 200 202 203 205 207 206 210 211 212 217 219 218 217 225 228 224 224
67 68 71 77 81 87 89 101 134 132 125 122 124 131 130 131 131 132 133 153 169 178 184 190 196 198 201 206 205 204 208 206 207 211 216 218 219 219 219 224 227 224 221
63 67 72 75 81 84 81 88 117 125 123 122 121 127 125 126 123 117 113 140 161 174 180 184 189 195 201 204 201 204 213 214 209 212 218 222 223 223 222 223 225 225 222
64 68 71 77 79 80 81 93 111 113 115 118 122 124 123 125 122 116 112 122 142 159 168 177 182 194 200 202 203 206 212 214 212 217 224 226 229 226 224 225 227 221 222
66 71 72 74 81 82 83 88 101 108 116 116 124 124 124 124 118 109 102 104 116 141 156 166 175 192 194 185 194 204 209 214 218 222 226 228 231 229 224 226 226 223 222
69 73 74 72 79 80 83 87 96 101 110 111 114 121 125 126 120 113 105 110 126 144 156 162 170 183 183 190 203 206 209 214 217 229 227 229 232 227 225 228 227 227 228
69 71 71 68 71 74 76 76 87 94 97 96 103 108 116 121 121 113 109 112 131 160 169 174 180 183 192 205 214 212 217 221 219 228 231 235 232 234 235 232 229 230 228
65 67 65 64 67 71 73 69 71 79 83 86 85 86 91 98 113 117 117 113 118 152 175 177 183 191 213 223 219 219 222 228 222 227 232 236 238 240 238 237 233 232 229
58 61 60 59 58 61 65 64 64 70 75 71 74 71 64 103 126 167 157 145 140 150 172 187 189 209 229 226 225 226 227 230 228 230 234 237 241 243 241 239 239 240 237
56 58 58 53 52 53 57 56 52 59 68 73 72 46 28 8 120 175 203 193 184 194 213 208 207 224 233 229 228 227 235 242 243 237 240 241 245 246 244 241 239 241 239
57 52 48 45 42 44 43 42 39 37 33 34 345 339 358 337 311 194 220 257 261 257 240 223 223 228 233 241 237 237 242 249 255 243 246 247 250 249 245 244 242 243 246
48 46 44 39 36 37 33 33 28 13 356 330 305 293 272 318 307 257 246 211 243 255 246 243 240 236 241 250 252 250 249 253 253 251 254 252 251 248 246 245 246 250 252
38 37 31 30 27 22 24 24 20 8 355 346 322 300 312 323 324 314 291 265 267 262 265 262 256 249 249 257 260 254 252 252 251 251 257 256 251 250 250 248 247 250 252
35 31 25 19 15 16 15 14 9 2 355 359 355 356 343 332 332 314 294 295 301 291 282 270 264 260 260 262 262 259 257 258 259 257 258 260 256 254 254 252 250 251 252
32 32 24 15 8 7 4 2 1 359 0 360 354 357 347 327 323 311 299 304 314 302 292 290 277 268 265 262 260 264 263 261 259 258 258 259 259 261 262 261 253 253 254
23 23 16 10 3 359 354 354 355 357 356 346 341 355 349 344 333 320 312 313 309 303 298 295 289 279 273 271 268 268 267 264 261 259 261 261 261 263 263 262 261 259 257
5 5 5 3 357 355 354 356 359 3 6 350 337 335 339 332 324 315 307 306 305 301 299 295 290 283 278 276 273 272 272 271 267 265 265 264 266 265 265 263 263 261 261
351 354 357 353 351 351 351 351 353 354 354 353 350 339 340 335 319 311 299 295 297 298 298 296 289 284 280 280 279 277 277 276 276 272 271 268 268 267 267 267 267 264 262
345 348 349 346 347 348 347 346 347 348 347 345 346 345 339 325 315 306 299 294 292 291 292 292 287 285 282 281 281 281 280 277 278 276 275 273 269 268 268 267 265 263 262
338 338 336 338 339 341 340 343 341 339 340 338 334 330 326 320 310 305 299 296 290 288 288 288 286 285 285 285 282 281 279 278 278 276 275 274 273 272 271 268 266 265 264
326 329 330 332 333 331 337 337 339 337 334 328 323 319 316 315 307 301 299 299 293 288 288 288 289 286 286 285 283 281 278 279 280 277 277 275 275 274 272 270 269 268 266
319 322 321 323 323 324 328 329 328 328 326 323 320 315 313 311 307 301 297 297 295 293 289 288 289 287 287 285 283 281 279 278 278 277 277 277 275 273 272 271 269 269 267
315 315 315 315 318 318 318 319 320 319 319 319 318 316 317 317 312 304 297 295 294 292 290 289 288 287 286 285 283 281 280 280 278 277 277 276 276 274 273 272 270 270 268
Height
5877 5875 5874 5874 5873 5872 5872 5872 5872 5872 5872 5872 5872 5873 5873 5874 5874 5875 5876 5876 5876 5877 5877 5878 5879 5879 5880 5881 5882 5882 5883 5884 5884 5885 5885 5886 5887 5888 5888 5889 5890 5891 5891
5877 5876 5875 5875 5874 5873 5872 5872 5872 5873 5873 5873 5873 5873 5874 5874 5874 5875 5875 5875 5875 5875 5876 5877 5878 5878 5879 5880 5881 5882 5882 5883 5884 5885 5885 5886 5886 5887 5888 5889 5889 5890 5891
5877 5876 5876 5875 5874 5873 5873 5873 5872 5873 5873 5873 5873 5874 5874 5874 5874 5874 5874 5873 5873 5873 5873 5875 5876 5877 5878 5879 5880 5881 5882 5883 5883 5884 5885 5885 5886 5886 5887 5888 5888 5889 5890
5878 5877 5876 5875 5875 5874 5873 5872 5872 5873 5873 5873 5873 5874 5874 5874 5874 5874 5873 5871 5871 5870 5871 5872 5874 5876 5877 5878 5879 5880 5881 5882 5883 5884 5884 5884 5885 5886 5886 5887 5888 5888 5889
5879 5878 5877 5877 5876 5875 5873 5870 5868 5871 5873 5874 5874 5874 5875 5875 5874 5873 5872 5870 5869 5869 5869 5871 5873 5875 5876 5878 5879 5880 5881 5881 5882 5883 5884 5884 5884 5885 5886 5886 5887 5888 5889
5880 5879 5878 5878 5877 5875 5873 5868 5867 5871 5874 5874 5875 5875 5875 5875 5874 5873 5871 5870 5869 5869 5869 5870 5872 5874 5875 5877 5878 5879 5880 5881 5882 5883 5883 5883 5884 5884 5885 5885 5886 5887 5888
5881 5880 5879 5879 5878 5877 5875 5873 5873 5874 5875 5875 5875 5875 5875 5875 5875 5873 5871 5870 5869 5869 5869 5871 5872 5874 5875 5876 5878 5878 5879 5880 5881 5882 5882 5883 5883 5884 5884 5884 5885 5886 5887
5882 5881 5880 5880 5879 5878 5877 5877 5876 5876 5876 5876 5876 5876 5876 5876 5875 5874 5873 5872 5870 5870 5871 5872 5873 5874 5875 5876 5877 5878 5879 5880 5881 5881 5881 5882 5882 5883 5883 5883 5884 5885 5885
5882 5882 5881 5881 5880 5879 5879 5878 5878 5877 5877 5877 5877 5877 5876 5876 5876 5875 5874 5873 5873 5872 5873 5873 5874 5875 5875 5876 5877 5878 5878 5879 5880 5880 5880 5881 5881 5882 5882 5883 5883 5884 5884
5884 5883 5882 5882 5881 5880 5880 5879 5879 5878 5878 5878 5878 5877 5877 5877 5876 5876 5875 5875 5874 5874 5874 5875 5875 5875 5876 5876 5877 5877 5878 5878 5879 5879 5880 5880 5880 5881 5881 5882 5882 5882 5883
5885 5884 5883 5882 5882 5881 5881 5880 5880 5879 5879 5879 5878 5878 5877 5877 5877 5876 5876 5875 5875 5875 5875 5875 5875 5875 5876 5876 5876 5877 5877 5878 5878 5879 5879 5879 5880 5880 5880 5880 5881 5881 5882
5886 5885 5884 5883 5882 5882 5881 5881 5880 5880 5879 5879 5879 5878 5878 5877 5877 5876 5876 5875 5875 5875 5874 5875 5875 5875 5876 5876 5876 5876 5877 5877 5877 5878 5878 5878 5879 5879 5879 5879 5879 5880 5881
5887 5886 5885 5884 5883 5882 5882 5881 5880 5880 5879 5879 5879 5878 5878 5877 5877 5876 5876 5876 5875 5875 5874 5874 5875 5875 5875 5875 5875 5875 5876 5876 5876 5876 5877 5877 5877 5877 5877 5877 5878 5878 5879
5888 5887 5886 5885 5884 5883 5882 5881 5881 5880 5879 5879 5878 5878 5878 5877 5877 5876 5876 5875 5875 5875 5874 5874 5874 5874 5875 5874 5875 5875 5875 5875 5875 5875 5875 5875 5876 5876 5876 5876 5876 5877 5877
5889 5888 5887 5886 5885 5884 5883 5881 5881 5880 5879 5879 5878 5877 5877 5877 5876 5876 5875 5875 5875 5874 5874 5874 5874 5874 5874 5874 5874 5874 5874 5874 5874 5874 5874 5874 5874 5874 5874 5874 5874 5875 5875
5890 5889 5887 5886 5885 5884 5883 5882 5881 5880 5879 5878 5877 5877 5876 5876 5876 5875 5875 5874 5874 5874 5873 5873 5873 5872 5872 5872 5872 5872 5872 5872 5872 5872 5872 5872 5872 5872 5872 5872 5872 5873 5873
5890 5889 5888 5887 5886 5884 5883 5882 5881 5880 5879 5878 5877 5876 5876 5875 5875 5875 5874 5874 5873 5872 5872 5872 5872 5871 5871 5871 5871 5871 5871 5870 5871 5871 5871 5870 5870 5870 5870 5870 5871 5871 5871
5891 5890 5888 5887 5886 5885 5883 5882 5881 5880 5879 5878 5877 5876 5876 5875 5874 5874 5873 5873 5872 5872 5871 5871 5871 5870 5870 5869 5869 5869 5869 5869 5869 5869 5869 5868 5868 5868 5868 5868 5869 5869 5869
5891 5890 5889 5887 5886 5885 5883 5882 5881 5880 5878 5877 5877 5876 5875 5874 5874 5873 5872 5872 5871 5871 5871 5870 5869 5869 5868 5868 5867 5867 5867 5867 5867 5867 5867 5866 5866 5866 5866 5866 5866 5866 5867
5892 5890 5889 5887 5886 5885 5883 5882 5881 5879 5877 5877 5876 5875 5874 5873 5872 5872 5871 5871 5870 5870 5869 5868 5868 5867 5866 5866 5865 5865 5865 5865 5864 5864 5864 5864 5863 5863 5864 5864 5864 5864 5864
5892 5890 5889 5887 5886 5884 5883 5882 5880 5879 5877 5876 5875 5874 5873 5872 5871 5870 5870 5869 5869 5868 5867 5866 5866 5865 5864 5864 5863 5863 5862 5862 5862 5862 5861 5861 5861 5861 5861 5860 5860 5860 5861
5891 5890 5888 5887 5885 5884 5882 5881 5880 5879 5877 5875 5874 5873 5872 5871 5870 5869 5868 5867 5866 5866 5865 5864 5863 5862 5862 5861 5861 5860 5860 5860 5859 5858 5858 5858 5858 5858 5858 5857 5857 5857 5857
5891 5889 5887 5886 5885 5883 5882 5880 5879 5878 5876 5875 5873 5872 5870 5869 5868 5867 5866 5865 5864 5863 5862 5861 5860 5860 5859 5858 5858 5858 5857 5857 5856 5856 5855 5854 5854 5854 5854 5853 5853 5853 5853
5890 5888 5886 5885 5884 5882 5880 5879 5878 5876 5875 5874 5872 5870 5869 5867 5866 5864 5863 5862 5861 5860 5859 5858 5857 5856 5856 5855 5854 5854 5854 5853 5853 5852 5851 5851 5850 5850 5849 5849 5849 5848 5848
5889 5887 5885 5884 5882 5881 5879 5878 5876 5875 5873 5872 5870 5868 5867 5865 5863 5862 5861 5859 5858 5857 5856 5855 5854 5853 5852 5851 5851 5850 5849 5849 5848 5848 5847 5846 5846 5845 5844 5844 5843 5843 5843
5887 5885 5884 5882 5881 5879 5877 5876 5874 5873 5871 5869 5868 5866 5864 5862 5860 5859 5857 5856 5854 5853 5852 5851 5850 5850 5849 5847 5846 5846 5845 5844 5844 5843 5842 5841 5841 5840 5839 5839 5838 5838 5837